星链-5247 (STARLINK-5247 )

导读 | 豆包AI

STARLINK-5247是美国太空探索技术公司(SpaceX)星链星座的卫星,星链旨在构建覆盖全球的低轨卫星互联网通信系统,该星于北京时间2022年10月28日发射入轨,运行在近地轨道,承担为全球偏远地区、海上、空中等场景提供宽带互联网接入服务的任务,是星链全球星座组网的组成单元之一。

基本信息
目录编号:
54203
目录名称:
STARLINK-5247
国际标识:
2022-141AY
轨道中心:
EARTH
卫星名称:
星链-5247
卫星全名:
星链-5247 (STARLINK-5247 )
卫星状态:
在轨 (已飞行1234 天)
发射日期:
2022-10-28 UTC
国别 :
美国 (US)
星等 :
--
轨道信息
数据来源 国际轨道数据
星历时间: 2026-03-15T06:37:18+0800
12小时前
查看轨道信息
半长轴: 6917.891km
偏心率: 0.0001587
轨道倾角: 53.219°
近地点辐角 96.808°
升交点赤经 330.345°
平近点角 263.309°
近地点: 538.656km
远地点: 540.852km
周期: 95.438分钟
每日圈数: 15.088368
详细信息
固有亮度:
5
最大亮度:
2.5
卫星平台:
Starlink v1.5
覆盖范围:
全球
运营商:
太空探索技术公司
运营商所在国:
美国
制造商(研发单位):
太空探索技术公司
制造商所在国:
美国
使用方式:
暂无
卫星简介
星链(Starlink)计划是由太空探索技术公司(SpaceX)提出的一个巨型低轨卫星互联网星座项目,计划在2019年至2024年间在太空搭建由约1.2万颗卫星组成的“星链”网络,其中1584颗将部署在地球上空550千米处的近地轨道,并从2020年开始工作。该卫星仍在工作。
2D轨道图
3D轨道图
轨道高度分析图
轨道倾角分析图
轨道综合分析图
查看轨道综合分析图